Time,TemperatureF,DewpointF,PressureIn,WindDirection,WindDirectionDegrees,WindSpeedMPH,WindSpeedGustMPH,Humidity,HourlyPrecipIn,Conditions,Clouds,dailyrainin,SoftwareType,DateUTC
2013-01-02 00:02:00,54.1,15.0,30.14,NE,55,5.0,19.0,21,0.00,,,0.00,weatherlink.com 1.10,2013-01-02 08:02:00,
2013-01-02 00:17:00,54.0,15.0,30.14,ESE,121,5.0,21.0,21,0.00,,,0.00,weatherlink.com 1.10,2013-01-02 08:17:00,
2013-01-02 00:32:00,53.8,15.0,30.14,ENE,67,8.0,19.0,21,0.00,,,0.00,weatherlink.com 1.10,2013-01-02 08:32:00,
2013-01-02 00:47:00,53.3,15.0,30.14,ENE,69,7.0,19.0,22,0.00,,,0.00,weatherlink.com 1.10,2013-01-02 08:47:00,
2013-01-02 01:02:00,53.1,15.0,30.13,ENE,61,8.0,20.0,22,0.00,,,0.00,weatherlink.com 1.10,2013-01-02 09:02:00,
2013-01-02 01:17:00,53.1,15.0,30.13,ENE,67,3.0,20.0,22,0.00,,,0.00,weatherlink.com 1.10,2013-01-02 09:17:00,
2013-01-02 01:32:00,53.0,15.0,30.12,ENE,63,12.0,22.0,22,0.00,,,0.00,weatherlink.com 1.10,2013-01-02 09:32:00,
2013-01-02 01:47:00,52.7,15.0,30.12,ENE,61,3.0,17.0,22,0.00,,,0.00,weatherlink.com 1.10,2013-01-02 09:47:00,
2013-01-02 02:02:00,52.5,14.0,30.12,NE,54,5.0,17.0,22,0.00,,,0.00,weatherlink.com 1.10,2013-01-02 10:02:00,
2013-01-02 02:17:00,52.0,15.0,30.12,East,96,9.0,15.0,23,0.00,,,0.00,weatherlink.com 1.10,2013-01-02 10:17:00,
2013-01-02 02:33:00,51.9,15.0,30.12,ENE,57,5.0,15.0,23,0.00,,,0.00,weatherlink.com 1.10,2013-01-02 10:33:00,
2013-01-02 02:48:00,51.6,16.0,30.11,East,79,2.0,12.0,24,0.00,,,0.00,weatherlink.com 1.10,2013-01-02 10:48:00,
2013-01-02 03:03:00,51.1,15.0,30.11,East,87,0.0,10.0,24,0.00,,,0.00,weatherlink.com 1.10,2013-01-02 11:03:00,
2013-01-02 03:18:00,51.0,15.0,30.11,ENE,58,10.0,10.0,24,0.00,,,0.00,weatherlink.com 1.10,2013-01-02 11:18:00,
2013-01-02 03:48:00,51.3,15.0,30.10,ENE,61,1.0,11.0,24,0.00,,,0.00,weatherlink.com 1.10,2013-01-02 11:48:00,
2013-01-02 04:03:00,51.2,15.0,30.10,NE,42,5.0,18.0,24,0.00,,,0.00,weatherlink.com 1.10,2013-01-02 12:03:00,
2013-01-02 04:18:00,50.4,16.0,30.09,NNE,16,3.0,14.0,25,0.00,,,0.00,weatherlink.com 1.10,2013-01-02 12:18:00,
2013-01-02 04:33:00,51.0,15.0,30.09,East,79,8.0,18.0,24,0.00,,,0.00,weatherlink.com 1.10,2013-01-02 12:33:00,
2013-01-02 04:48:00,51.4,15.0,30.08,NE,56,9.0,25.0,23,0.00,,,0.00,weatherlink.com 1.10,2013-01-02 12:48:00,
2013-01-02 05:03:00,51.4,15.0,30.08,ENE,69,7.0,23.0,23,0.00,,,0.00,weatherlink.com 1.10,2013-01-02 13:03:00,
2013-01-02 05:18:00,51.7,15.0,30.08,NNE,26,9.0,28.0,23,0.00,,,0.00,weatherlink.com 1.10,2013-01-02 13:18:00,
2013-01-02 05:33:00,51.3,15.0,30.08,NE,43,8.0,14.0,24,0.00,,,0.00,weatherlink.com 1.10,2013-01-02 13:33:00,
2013-01-02 05:48:00,51.7,15.0,30.08,ENE,69,8.0,25.0,23,0.00,,,0.00,weatherlink.com 1.10,2013-01-02 13:48:00,
2013-01-02 06:03:00,51.4,15.0,30.08,NE,42,9.0,17.0,23,0.00,,,0.00,weatherlink.com 1.10,2013-01-02 14:03:00,
2013-01-02 06:18:00,51.3,15.0,30.08,NNE,17,0.0,15.0,24,0.00,,,0.00,weatherlink.com 1.10,2013-01-02 14:18:00,
2013-01-02 06:33:00,51.3,15.0,30.08,North,10,0.0,13.0,24,0.00,,,0.00,weatherlink.com 1.10,2013-01-02 14:33:00,
2013-01-02 06:48:00,51.9,15.0,30.09,ENE,66,1.0,19.0,23,0.00,,,0.00,weatherlink.com 1.10,2013-01-02 14:48:00,
2013-01-02 07:03:00,51.9,15.0,30.09,ENE,63,0.0,13.0,23,0.00,,,0.00,weatherlink.com 1.10,2013-01-02 15:03:00,
2013-01-02 07:18:00,51.1,15.0,30.09,NE,36,3.0,10.0,24,0.00,,,0.00,weatherlink.com 1.10,2013-01-02 15:18:00,
2013-01-02 07:33:00,51.5,16.0,30.09,ENE,59,9.0,10.0,24,0.00,,,0.00,weatherlink.com 1.10,2013-01-02 15:33:00,
2013-01-02 07:48:00,52.3,16.0,30.09,ENE,69,11.0,15.0,24,0.00,,,0.00,weatherlink.com 1.10,2013-01-02 15:48:00,
2013-01-02 08:03:00,52.9,16.0,30.09,NE,51,3.0,13.0,23,0.00,,,0.00,weatherlink.com 1.10,2013-01-02 16:03:00,
2013-01-02 08:18:00,53.5,16.0,30.09,NNE,30,9.0,15.0,23,0.00,,,0.00,weatherlink.com 1.10,2013-01-02 16:18:00,
2013-01-02 08:33:00,54.5,17.0,30.09,ENE,67,11.0,15.0,23,0.00,,,0.00,weatherlink.com 1.10,2013-01-02 16:33:00,
2013-01-02 08:48:00,55.0,18.0,30.10,ENE,65,0.0,12.0,23,0.00,,,0.00,weatherlink.com 1.10,2013-01-02 16:48:00,
2013-01-02 09:03:00,55.7,17.0,30.11,ENE,65,11.0,11.0,22,0.00,,,0.00,weatherlink.com 1.10,2013-01-02 17:03:00,
2013-01-02 09:18:00,56.5,18.0,30.11,NE,34,7.0,16.0,22,0.00,,,0.00,weatherlink.com 1.10,2013-01-02 17:18:00,
2013-01-02 09:33:00,57.1,17.0,30.11,NNE,23,2.0,16.0,21,0.00,,,0.00,weatherlink.com 1.10,2013-01-02 17:33:00,
2013-01-02 09:49:00,58.0,17.0,30.11,ENE,61,3.0,15.0,20,0.00,,,0.00,weatherlink.com 1.10,2013-01-02 17:49:00,
2013-01-02 10:04:00,58.4,17.0,30.11,NE,45,0.0,14.0,20,0.00,,,0.00,weatherlink.com 1.10,2013-01-02 18:04:00,
2013-01-02 10:19:00,58.7,18.0,30.11,NNE,13,1.0,18.0,20,0.00,,,0.00,weatherlink.com 1.10,2013-01-02 18:19:00,
2013-01-02 10:34:00,59.1,18.0,30.11,NE,42,13.0,19.0,20,0.00,,,0.00,weatherlink.com 1.10,2013-01-02 18:34:00,
2013-01-02 10:49:00,59.5,18.0,30.10,East,88,17.0,17.0,20,0.00,,,0.00,weatherlink.com 1.10,2013-01-02 18:49:00,
2013-01-02 11:04:00,59.8,17.0,30.10,NE,43,13.0,17.0,19,0.00,,,0.00,weatherlink.com 1.10,2013-01-02 19:04:00,
2013-01-02 11:19:00,60.1,17.0,30.09,NNE,26,7.0,18.0,19,0.00,,,0.00,weatherlink.com 1.10,2013-01-02 19:19:00,
2013-01-02 11:34:00,60.6,18.0,30.08,ENE,57,4.0,19.0,19,0.00,,,0.00,weatherlink.com 1.10,2013-01-02 19:34:00,
2013-01-02 11:49:00,61.1,17.0,30.08,NNE,17,5.0,21.0,18,0.00,,,0.00,weatherlink.com 1.10,2013-01-02 19:49:00,
2013-01-02 12:04:00,60.9,18.0,30.07,NNE,25,12.0,19.0,19,0.00,,,0.00,weatherlink.com 1.10,2013-01-02 20:04:00,
2013-01-02 12:19:00,61.5,17.0,30.07,NNE,30,7.0,18.0,18,0.00,,,0.00,weatherlink.com 1.10,2013-01-02 20:19:00,
2013-01-02 12:34:00,61.5,17.0,30.07,North,350,7.0,22.0,18,0.00,,,0.00,weatherlink.com 1.10,2013-01-02 20:34:00,
2013-01-02 12:49:00,61.6,17.0,30.06,NNE,28,14.0,24.0,18,0.00,,,0.00,weatherlink.com 1.10,2013-01-02 20:49:00,
2013-01-02 13:04:00,61.8,16.0,30.05,ENE,72,12.0,21.0,17,0.00,,,0.00,weatherlink.com 1.10,2013-01-02 21:04:00,
2013-01-02 13:19:00,62.5,18.0,30.05,ENE,75,14.0,19.0,18,0.00,,,0.00,weatherlink.com 1.10,2013-01-02 21:19:00,
2013-01-02 13:34:00,62.9,19.0,30.04,NE,34,8.0,16.0,18,0.00,,,0.00,weatherlink.com 1.10,2013-01-02 21:34:00,
2013-01-02 13:49:00,62.6,18.0,30.03,ENE,71,10.0,19.0,18,0.00,,,0.00,weatherlink.com 1.10,2013-01-02 21:49:00,
2013-01-02 14:04:00,63.0,19.0,30.03,NNE,28,4.0,16.0,18,0.00,,,0.00,weatherlink.com 1.10,2013-01-02 22:04:00,
2013-01-02 14:19:00,63.2,17.0,30.04,NNE,20,8.0,16.0,17,0.00,,,0.00,weatherlink.com 1.10,2013-01-02 22:19:00,
2013-01-02 14:34:00,63.1,17.0,30.03,NE,38,10.0,16.0,17,0.00,,,0.00,weatherlink.com 1.10,2013-01-02 22:34:00,
2013-01-02 14:49:00,63.1,19.0,30.03,NNE,28,6.0,17.0,18,0.00,,,0.00,weatherlink.com 1.10,2013-01-02 22:49:00,
2013-01-02 15:04:00,63.0,17.0,30.03,ENE,61,5.0,11.0,17,0.00,,,0.00,weatherlink.com 1.10,2013-01-02 23:04:00,
2013-01-02 15:19:00,62.9,19.0,30.03,East,86,0.0,11.0,18,0.00,,,0.00,weatherlink.com 1.10,2013-01-02 23:19:00,
2013-01-02 15:34:00,62.6,17.0,30.04,ENE,58,5.0,11.0,17,0.00,,,0.00,weatherlink.com 1.10,2013-01-02 23:34:00,
2013-01-02 15:49:00,62.6,18.0,30.04,NNE,32,1.0,8.0,18,0.00,,,0.00,weatherlink.com 1.10,2013-01-02 23:49:00,
2013-01-02 16:04:00,62.1,18.0,30.04,NE,49,6.0,11.0,18,0.00,,,0.00,weatherlink.com 1.10,2013-01-03 00:04:00,
2013-01-02 16:19:00,61.8,18.0,30.03,NNE,22,0.0,7.0,18,0.00,,,0.00,weatherlink.com 1.10,2013-01-03 00:19:00,
2013-01-02 16:49:00,60.2,18.0,30.03,NNW,336,4.0,7.0,19,0.00,,,0.00,weatherlink.com 1.10,2013-01-03 00:49:00,
2013-01-02 17:04:00,59.6,17.0,30.03,NNW,344,5.0,8.0,19,0.00,,,0.00,weatherlink.com 1.10,2013-01-03 01:04:00,
2013-01-02 17:19:00,59.1,18.0,30.04,North,5,7.0,7.0,20,0.00,,,0.00,weatherlink.com 1.10,2013-01-03 01:19:00,
2013-01-02 17:34:00,58.4,18.0,30.04,NNW,338,2.0,6.0,21,0.00,,,0.00,weatherlink.com 1.10,2013-01-03 01:34:00,
2013-01-02 17:49:00,57.3,17.0,30.04,NNE,12,1.0,8.0,21,0.00,,,0.00,weatherlink.com 1.10,2013-01-03 01:49:00,
2013-01-02 18:04:00,56.9,19.0,30.05,NNE,19,0.0,5.0,23,0.00,,,0.00,weatherlink.com 1.10,2013-01-03 02:04:00,
2013-01-02 18:34:00,56.7,18.0,30.04,ENE,63,0.0,6.0,22,0.00,,,0.00,weatherlink.com 1.10,2013-01-03 02:34:00,
2013-01-02 18:49:00,56.9,18.0,30.04,NE,42,0.0,8.0,22,0.00,,,0.00,weatherlink.com 1.10,2013-01-03 02:49:00,
2013-01-02 19:04:00,56.8,17.0,30.04,NE,37,1.0,8.0,21,0.00,,,0.00,weatherlink.com 1.10,2013-01-03 03:04:00,
2013-01-02 19:19:00,56.7,17.0,30.04,NNE,32,0.0,7.0,21,0.00,,,0.00,weatherlink.com 1.10,2013-01-03 03:19:00,
2013-01-02 19:35:00,56.9,17.0,30.03,NNE,12,3.0,9.0,21,0.00,,,0.00,weatherlink.com 1.10,2013-01-03 03:35:00,
2013-01-02 19:50:00,56.7,17.0,30.04,North,10,6.0,12.0,21,0.00,,,0.00,weatherlink.com 1.10,2013-01-03 03:50:00,
2013-01-02 20:20:00,56.4,17.0,30.04,North,9,1.0,8.0,21,0.00,,,0.00,weatherlink.com 1.10,2013-01-03 04:20:00,
2013-01-02 20:35:00,56.6,16.0,30.05,NNE,13,0.0,11.0,20,0.00,,,0.00,weatherlink.com 1.10,2013-01-03 04:35:00,
2013-01-02 20:50:00,56.1,16.0,30.04,North,10,3.0,6.0,21,0.00,,,0.00,weatherlink.com 1.10,2013-01-03 04:50:00,
2013-01-02 21:05:00,55.6,17.0,30.05,North,355,5.0,7.0,22,0.00,,,0.00,weatherlink.com 1.10,2013-01-03 05:05:00,
2013-01-02 21:20:00,55.7,17.0,30.05,NE,46,1.0,6.0,22,0.00,,,0.00,weatherlink.com 1.10,2013-01-03 05:20:00,
2013-01-02 21:35:00,55.0,18.0,30.05,ESE,108,0.0,5.0,23,0.00,,,0.00,weatherlink.com 1.10,2013-01-03 05:35:00,
2013-01-02 21:50:00,54.9,18.0,30.05,East,84,0.0,9.0,23,0.00,,,0.00,weatherlink.com 1.10,2013-01-03 05:50:00,
2013-01-02 22:05:00,55.0,18.0,30.05,ESE,117,0.0,5.0,23,0.00,,,0.00,weatherlink.com 1.10,2013-01-03 06:05:00,
2013-01-02 22:20:00,53.5,17.0,30.05,ESE,105,2.0,3.0,24,0.00,,,0.00,weatherlink.com 1.10,2013-01-03 06:20:00,
2013-01-02 22:35:00,52.3,18.0,30.05,SE,132,0.0,4.0,26,0.00,,,0.00,weatherlink.com 1.10,2013-01-03 06:35:00,
2013-01-02 22:50:00,52.8,19.0,30.05,ENE,75,4.0,5.0,26,0.00,,,0.00,weatherlink.com 1.10,2013-01-03 06:50:00,
2013-01-02 23:05:00,54.5,17.0,30.05,NNE,20,0.0,5.0,23,0.00,,,0.00,weatherlink.com 1.10,2013-01-03 07:05:00,
2013-01-02 23:20:00,53.3,18.0,30.05,NE,42,0.0,3.0,25,0.00,,,0.00,weatherlink.com 1.10,2013-01-03 07:20:00,
2013-01-02 23:35:00,52.4,18.0,30.05,NE,38,0.0,1.0,26,0.00,,,0.00,weatherlink.com 1.10,2013-01-03 07:35:00,
2013-01-02 23:50:00,51.7,19.0,30.05,ENE,63,0.0,0.0,27,0.00,,,0.00,weatherlink.com 1.10,2013-01-03 07:50:00,